Date String (YYYY-MM-DD hh:mm:ss) UTC,Instrument flags,Ambient pressure (hPa),Sample flow (lpm),Bypass flow (lpm),Sample temperature (°C),Ambient temperature (°C),ASC tube jacket temperature (°C),LED temperature (°C),Box temperature (°C),Sample RH (%),Span deviation,Mass concentration (μg/m³),Mass concentration (μg/m³),Mass concentration (μg/m³)
DateTimeUTC,F1_M11,P_M11,Q1_M11,Q2_M11,T1_M11,T2_M11,T3_M11,T4_M11,T5_M11,U1_M11,ZSPAN_M11,X2_M11,X0_M11,X1_M11
2022-11-01 00:00:00,,0822.4,4.99,0.00,30.0,28.4,00.0,38.7,31.9,07.3,0000.0,0003.60,0010.11,0002.98
2022-11-01 00:01:00,,0822.4,4.99,0.00,30.0,28.5,00.0,38.7,31.9,07.3,0000.0,0003.64,0010.03,0003.01
2022-11-01 00:02:00,,0822.4,5.00,0.00,30.0,28.6,00.0,38.8,31.9,07.3,0000.0,0003.70,0010.28,0003.04
2022-11-01 00:03:00,,0822.4,5.00,0.00,30.0,28.7,00.0,38.8,32.0,07.4,0000.0,0003.68,0010.19,0003.07
2022-11-01 00:04:00,,0822.4,5.01,0.00,30.0,28.7,00.0,38.8,32.0,07.4,0000.0,0003.73,0010.27,0003.08
2022-11-01 00:05:00,,0822.4,5.00,0.00,30.0,28.7,00.0,38.8,32.0,07.2,0000.0,0003.76,0010.02,0003.10
2022-11-01 00:06:00,,0822.4,5.00,0.00,30.1,28.8,00.0,38.8,32.0,07.2,0000.0,0003.78,0010.93,0003.12
2022-11-01 00:07:00,,0822.4,5.00,0.00,30.1,28.8,00.0,38.8,32.0,07.2,0000.0,0003.76,0010.47,0003.13
2022-11-01 00:08:00,,0822.4,5.00,0.00,30.1,28.8,00.0,38.8,32.1,07.2,0000.0,0003.73,0010.45,0003.12
2022-11-01 00:09:00,,0822.4,5.00,0.00,30.1,28.9,00.0,38.8,32.1,07.2,0000.0,0003.76,0010.45,0003.13
2022-11-01 00:10:00,,0822.4,5.00,0.00,30.1,28.9,00.0,38.9,32.1,07.4,0000.0,0003.72,0011.02,0003.12
2022-11-01 00:11:00,,0822.4,5.00,0.00,30.2,28.9,00.0,38.9,32.1,07.6,0000.0,0003.68,0010.77,0003.09
2022-11-01 00:12:00,,0822.4,5.01,0.00,30.2,28.9,00.0,38.9,32.1,07.5,0000.0,0003.69,0010.90,0003.07
2022-11-01 00:13:00,,0822.4,5.00,0.00,30.2,28.9,00.0,38.9,32.1,07.5,0000.0,0003.65,0011.27,0003.01
2022-11-01 00:14:00,,0822.4,5.00,0.00,30.2,28.9,00.0,38.9,32.1,07.5,0000.0,0003.64,0011.21,0002.95
2022-11-01 00:15:00,,0822.5,5.00,0.00,30.2,28.9,00.0,38.9,32.1,07.7,0000.0,0003.56,0011.75,0002.89
2022-11-01 00:16:00,,0822.5,4.99,0.00,30.2,29.0,00.0,39.0,32.1,07.6,0000.0,0003.48,0011.88,0002.82
2022-11-01 00:17:00,,0822.6,5.01,0.00,30.3,29.0,00.0,39.0,32.2,07.7,0000.0,0003.40,0010.66,0002.75
2022-11-01 00:18:00,,0822.6,5.00,0.00,30.3,29.0,00.0,39.0,32.1,07.8,0000.0,0003.35,0010.33,0002.67
2022-11-01 00:19:00,,0822.6,4.99,0.00,30.3,29.0,00.0,39.0,32.1,07.9,0000.0,0003.33,0009.63,0002.61
2022-11-01 00:20:00,,0822.6,5.00,0.00,30.3,29.0,00.0,39.0,32.2,08.2,0000.0,0003.23,0009.35,0002.51
2022-11-01 00:21:00,,0822.6,4.99,0.00,30.3,28.8,00.0,39.0,32.2,08.3,0000.0,0003.16,0008.60,0002.42
2022-11-01 00:22:00,,0822.6,5.01,0.00,30.3,27.3,00.0,39.0,32.0,08.4,0000.0,0003.05,0008.38,0002.32
2022-11-01 00:23:00,,0822.6,5.00,0.00,30.2,26.4,00.0,38.9,32.0,08.4,0000.0,0002.85,0008.15,0002.21
2022-11-01 00:24:00,,0822.6,5.00,0.00,30.2,26.5,00.0,38.9,31.8,08.5,0000.0,0002.74,0007.62,0002.14
2022-11-01 00:25:00,,0822.6,4.99,0.00,30.1,26.8,00.0,38.8,31.7,08.6,0000.0,0002.62,0006.87,0002.06
2022-11-01 00:26:00,,0822.6,5.01,0.00,30.0,27.1,00.0,38.8,31.7,08.6,0000.0,0002.57,0005.49,0002.01
2022-11-01 00:27:00,,0822.6,4.99,0.00,30.0,27.4,00.0,38.8,31.7,08.6,0000.0,0002.51,0004.85,0001.97
2022-11-01 00:28:00,,0822.6,5.01,0.00,30.0,27.7,00.0,38.8,31.7,08.7,0000.0,0002.43,0004.71,0001.91
2022-11-01 00:29:00,,0822.6,4.98,0.00,29.9,27.9,00.0,38.8,31.7,08.7,0000.0,0002.38,0004.55,0001.88
2022-11-01 00:30:00,,0822.6,5.01,0.00,29.9,28.0,00.0,38.8,31.8,08.6,0000.0,0002.26,0004.31,0001.83
2022-11-01 00:31:00,,0822.6,5.02,0.00,29.9,28.2,00.0,38.8,31.8,08.7,0000.0,0002.21,0004.09,0001.80
2022-11-01 00:32:00,,0822.6,4.99,0.00,29.9,28.3,00.0,38.8,31.8,08.6,0000.0,0002.21,0004.10,0001.79
2022-11-01 00:33:00,,0822.7,5.01,0.00,29.9,28.3,00.0,38.8,31.8,08.5,0000.0,0002.29,0004.34,0001.82
2022-11-01 00:34:00,,0822.6,5.00,0.00,29.9,28.4,00.0,38.7,31.8,08.4,0000.0,0002.34,0004.06,0001.86
2022-11-01 00:35:00,,0822.7,4.99,0.00,29.9,28.4,00.0,38.7,31.8,08.4,0000.0,0002.45,0004.06,0001.90
2022-11-01 00:36:00,,0822.7,5.00,0.00,30.0,28.5,00.0,38.8,31.8,08.5,0000.0,0002.53,0004.17,0001.94
2022-11-01 00:37:00,,0822.6,5.01,0.00,30.0,28.5,00.0,38.8,31.8,08.5,0000.0,0002.54,0003.96,0001.96
2022-11-01 00:38:00,,0822.7,5.00,0.00,30.0,28.5,00.0,38.8,31.8,08.6,0000.0,0002.58,0004.22,0001.97
2022-11-01 00:39:00,,0822.7,5.00,0.00,30.0,28.5,00.0,38.8,31.8,08.7,0000.0,0002.60,0004.28,0001.99
2022-11-01 00:40:00,,0822.7,5.00,0.00,30.0,28.5,00.0,38.8,31.9,08.8,0000.0,0002.62,0004.43,0001.99
2022-11-01 00:41:00,,0822.7,5.00,0.00,30.0,28.6,00.0,38.8,31.9,08.8,0000.0,0002.65,0004.54,0002.01
2022-11-01 00:42:00,,0822.7,5.00,0.00,30.0,28.6,00.0,38.8,31.9,08.9,0000.0,0002.69,0004.81,0002.04
2022-11-01 00:43:00,,0822.7,5.00,0.00,30.0,28.6,00.0,38.8,31.8,08.9,0000.0,0002.66,0004.68,0002.05
2022-11-01 00:44:00,,0822.7,5.00,0.00,30.0,28.6,00.0,38.8,31.9,08.9,0000.0,0002.59,0004.47,0002.04
2022-11-01 00:45:00,,0822.7,5.00,0.00,30.1,28.6,00.0,38.8,32.0,08.9,0000.0,0002.54,0004.36,0002.02
2022-11-01 00:46:00,,0822.7,5.00,0.00,30.1,28.7,00.0,38.8,32.0,08.9,0000.0,0002.43,0004.02,0001.98
2022-11-01 00:47:00,,0822.8,5.01,0.00,30.1,28.6,00.0,38.8,31.9,08.9,0000.0,0002.36,0003.88,0001.95
2022-11-01 00:48:00,,0822.8,5.00,0.00,30.1,28.6,00.0,38.9,31.9,09.0,0000.0,0002.30,0003.83,0001.91
2022-11-01 00:49:00,,0822.8,5.00,0.00,30.1,28.6,00.0,38.9,31.9,09.0,0000.0,0002.26,0003.51,0001.89
2022-11-01 00:50:00,,0822.8,5.00,0.00,30.1,28.6,00.0,38.9,31.9,09.0,0000.0,0002.22,0003.42,0001.87
2022-11-01 00:51:00,,0822.8,5.01,0.00,30.1,28.6,00.0,38.9,31.9,09.0,0000.0,0002.19,0003.22,0001.86
2022-11-01 00:52:00,,0822.8,5.00,0.00,30.1,28.6,00.0,38.9,31.9,09.0,0000.0,0002.14,0003.16,0001.83
2022-11-01 00:53:00,,0822.9,5.00,0.00,30.1,28.6,00.0,38.9,31.9,09.0,0000.0,0002.07,0002.85,0001.79
2022-11-01 00:54:00,,0822.9,5.01,0.00,30.1,28.7,00.0,38.9,31.9,09.0,0000.0,0002.05,0002.81,0001.77
2022-11-01 00:55:00,,0822.9,5.00,0.00,30.1,28.7,00.0,38.9,32.0,09.1,0000.0,0002.06,0003.00,0001.74
2022-11-01 00:56:00,,0822.9,4.99,0.00,30.1,28.7,00.0,38.9,32.0,09.0,0000.0,0002.04,0003.22,0001.72
2022-11-01 00:57:00,,0823.0,5.02,0.00,30.2,28.7,00.0,38.9,31.9,09.0,0000.0,0002.01,0003.24,0001.68
2022-11-01 00:58:00,,0823.0,4.98,0.00,30.2,28.7,00.0,39.0,32.0,09.0,0000.0,0001.99,0003.80,0001.67
2022-11-01 00:59:00,,0823.0,5.01,0.00,30.2,28.7,00.0,39.0,32.0,09.0,0000.0,0002.03,0004.23,0001.67
